DW9923 Weather Reports


Display with metric or nautical units.
time (UTC)temp
F
wind
direction
speed
MPH
gust
MPH
rain 1hr
in
rain 24hr
in
rain mn
in
humidity
%
barometer
mb
20260904053915 64 288 0.0 0.0 0.00 0.00 0.00 78
20260904053420 64 288 0.0 0.0 0.00 0.00 0.00 78
20260904051031 65 288 0.0 0.0 0.00 0.00 0.00 78
20260904044610 66 288 0.0 0.0 0.00 0.00 0.00 77
20260904044051 66 288 0.0 0.0 0.00 0.00 0.00 77
20260904043554 66 288 0.0 0.0 0.00 0.00 0.00 77
20260904042440 66 288 0.0 0.0 0.00 0.00 0.00 76
20260904041939 67 288 0.0 0.0 0.00 0.00 0.00 75
20260904040808 67 288 0.0 0.0 0.00 0.00 0.00 74
20260904040309 67 288 0.0 0.0 0.00 0.00 0.00 74
20260904035758 68 288 0.0 0.0 0.00 0.00 0.00 74
20260904035240 68 288 0.0 0.0 0.00 0.00 0.00 73
20260904034731 68 288 0.0 0.0 0.00 0.00 0.00 73
20260904034228 68 288 0.0 0.0 0.00 0.00 0.00 72
20260904033718 68 288 0.0 0.0 0.00 0.00 0.00 72
20260904032546 69 288 0.0 0.0 0.00 0.00 0.00 70
20260904031358 70 288 0.0 0.0 0.00 0.00 0.00 70
20260904030900 70 288 0.0 0.0 0.00 0.00 0.00 69
20260904030351 70 288 0.0 0.0 0.00 0.00 0.00 69
20260904025840 71 288 0.0 0.0 0.00 0.00 0.00 68
20260904025328 71 288 0.0 0.0 0.00 0.00 0.00 68
20260904024208 71 288 0.0 0.0 0.00 0.00 0.00 68
20260904023108 72 288 0.0 0.0 0.00 0.00 0.00 68
20260904022605 72 288 0.0 0.0 0.00 0.00 0.00 68
20260904022057 72 288 1.0 3.0 0.00 0.00 0.00 68
20260904021555 73 288 1.0 3.0 0.00 0.00 0.00 67
20260904021056 73 288 1.0 3.0 0.00 0.00 0.00 66
20260904020551 73 288 1.0 3.0 0.00 0.00 0.00 65
20260904020039 74 288 1.0 3.0 0.00 0.00 0.00 64
20260904015547 74 288 1.0 3.0 0.00 0.00 0.00 63
20260904015028 75 288 0.0 4.0 0.00 0.00 0.00 62
20260904014531 75 288 1.0 4.0 0.00 0.00 0.00 61
20260904014025 76 288 1.0 4.0 0.00 0.00 0.00 60
20260904013508 76 288 2.0 4.0 0.00 0.00 0.00 59
20260904013010 77 288 2.0 4.0 0.00 0.00 0.00 58
20260904011823 78 292 1.0 3.0 0.00 0.00 0.00 56
20260904011330 79 292 0.0 3.0 0.00 0.00 0.00 55
20260904010834 80 290 0.0 0.0 0.00 0.00 0.00 54
20260904010321 80 290 0.0 1.0 0.00 0.00 0.00 53
20260904005805 80 290 0.0 0.0 0.00 0.00 0.00 53
20260904005308 80 290 0.0 1.0 0.00 0.00 0.00 52
20260904004804 81 297 0.0 0.0 0.00 0.00 0.00 52
20260904004254 81 297 0.0 0.0 0.00 0.00 0.00 52
20260904003736 81 297 0.0 7.0 0.00 0.00 0.00 52
20260904003230 82 297 2.0 7.0 0.00 0.00 0.00 51
20260904002733 82 298 2.0 7.0 0.00 0.00 0.00 51
20260904002234 82 298 1.0 5.0 0.00 0.00 0.00 50
20260904001742 83 298 1.0 5.0 0.00 0.00 0.00 49
20260904001236 83 297 0.0 3.0 0.00 0.00 0.00 49
20260904000727 83 297 0.0 2.0 0.00 0.00 0.00 49
20260904000221 84 298 0.0 1.0 0.00 0.00 0.00 48
20260903235725 84 299 1.0 0.0 0.00 0.00 0.00 48
20260903235224 84 300 2.0 6.0 0.00 0.00 0.00 47
20260903234708 85 289 1.0 4.0 0.00 0.00 0.00 46
20260903234210 85 300 1.0 5.0 0.00 0.00 0.00 47
20260903231135 86 344 0.0 5.0 0.00 0.00 0.00 45
20260903230627 86 337 0.0 3.0 0.00 0.00 0.00 44
20260903225502 86 67 0.0 4.0 0.00 0.00 0.00 44
20260903224958 86 90 0.0 4.0 0.00 0.00 0.00 43
20260903224455 86 130 0.0 4.0 0.00 0.00 0.00 43
20260903224004 86 101 0.0 3.0 0.00 0.00 0.00 43
20260903223501 87 355 0.0 3.0 0.00 0.00 0.00 42
20260903222948 87 119 0.0 2.0 0.00 0.00 0.00 42
20260903222450 87 96 0.0 2.0 0.00 0.00 0.00 42
20260903221951 87 161 0.0 4.0 0.00 0.00 0.00 42
20260903221453 87 146 0.0 4.0 0.00 0.00 0.00 42
20260903220944 87 94 0.0 2.0 0.00 0.00 0.00 42
20260903220447 87 115 0.0 2.0 0.00 0.00 0.00 42
20260903215321 86 173 0.0 4.0 0.00 0.00 0.00 43
20260903214803 87 148 0.0 4.0 0.00 0.00 0.00 42
20260903214252 87 153 0.0 4.0 0.00 0.00 0.00 43
20260903213745 87 155 0.0 4.0 0.00 0.00 0.00 42
20260903213234 87 121 0.0 4.0 0.00 0.00 0.00 42
20260903212713 87 276 0.0 4.0 0.00 0.00 0.00 43
20260903211551 86 36 0.0 3.0 0.00 0.00 0.00 45
20260903211100 86 118 0.0 2.0 0.00 0.00 0.00 44
20260903210608 86 313 0.0 2.0 0.00 0.00 0.00 45
20260903210058 86 150 0.0 1.0 0.00 0.00 0.00 46
20260903205552 85 151 0.0 4.0 0.00 0.00 0.00 46
20260903205058 85 144 0.0 4.0 0.00 0.00 0.00 47
20260903204605 85 88 0.0 4.0 0.00 0.00 0.00 47
20260903204047 85 138 0.0 4.0 0.00 0.00 0.00 47
20260903203529 84 48 0.0 4.0 0.00 0.00 0.00 48
20260903203017 83 101 0.0 4.0 0.00 0.00 0.00 49
20260903201227 83 101 1.0 6.0 0.00 0.00 0.00 51
20260903200111 82 308 1.0 8.0 0.00 0.00 0.00 51
20260903195555 82 28 1.0 8.0 0.00 0.00 0.00 53
20260903195044 82 346 2.0 8.0 0.00 0.00 0.00 52
20260903194537 83 317 3.0 8.0 0.00 0.00 0.00 53
20260903194039 83 305 2.0 6.0 0.00 0.00 0.00 51
20260903193539 83 44 1.0 6.0 0.00 0.00 0.00 51
20260903193039 84 313 2.0 7.0 0.00 0.00 0.00 50
20260903192534 84 306 1.0 7.0 0.00 0.00 0.00 51
20260903192024 84 26 1.0 7.0 0.00 0.00 0.00 50
20260903191532 84 304 1.0 7.0 0.00 0.00 0.00 51
20260903191021 84 283 1.0 6.0 0.00 0.00 0.00 50
20260903190506 84 308 1.0 6.0 0.00 0.00 0.00 50
20260903185953 84 265 1.0 6.0 0.00 0.00 0.00 50
20260903185500 84 300 1.0 6.0 0.00 0.00 0.00 51
20260903184327 83 298 1.0 6.0 0.00 0.00 0.00 50
20260903183836 82 298 1.0 6.0 0.00 0.00 0.00 51
20260903183340 82 297 1.0 5.0 0.00 0.00 0.00 51
20260903182847 82 295 2.0 4.0 0.00 0.00 0.00 51
20260903182349 82 296 1.0 6.0 0.00 0.00 0.00 52
20260903180543 81 298 2.0 7.0 0.00 0.00 0.00 55
20260903180040 80 320 2.0 7.0 0.00 0.00 0.00 55
20260903175524 80 300 2.0 5.0 0.00 0.00 0.00 56
20260903175005 80 306 2.0 5.0 0.00 0.00 0.00 56
20260903174458 79 307 2.0 6.0 0.00 0.00 0.00 57
20260903173314 78 301 2.0 6.0 0.00 0.00 0.00 58
20260903172807 78 301 2.0 5.0 0.00 0.00 0.00 59
20260903172306 78 301 1.0 5.0 0.00 0.00 0.00 59
20260903171806 77 302 1.0 5.0 0.00 0.00 0.00 60
20260903171305 77 302 1.0 5.0 0.00 0.00 0.00 61
20260903170202 76 305 1.0 5.0 0.00 0.00 0.00 63
20260903165709 75 306 1.0 3.0 0.00 0.00 0.00 65
20260903165149 74 306 0.0 4.0 0.00 0.00 0.00 67
20260903164639 73 306 0.0 4.0 0.00 0.00 0.00 69
20260903164122 71 306 0.0 4.0 0.00 0.00 0.00 71
20260903163612 70 306 0.0 4.0 0.00 0.00 0.00 72
20260903163102 68 306 0.0 0.0 0.00 0.00 0.00 75
20260903161927 65 306 0.0 0.0 0.00 0.00 0.00 83
20260903161411 64 306 0.0 1.0 0.00 0.00 0.00 87
20260903160851 62 306 0.0 1.0 0.00 0.00 0.00 91
20260903160352 62 306 0.0 0.0 0.00 0.00 0.00 93
20260903155838 61 306 0.0 0.0 0.00 0.00 0.00 93
20260903155343 60 306 0.0 0.0 0.00 0.00 0.00 93
20260903154832 59 306 0.0 0.0 0.00 0.00 0.00 93
20260903153704 57 306 0.0 0.0 0.00 0.00 0.00 92
20260903153150 56 306 0.0 0.0 0.00 0.00 0.00 92
20260903152641 56 306 0.0 0.0 0.00 0.00 0.00 91
20260903152131 55 306 0.0 0.0 0.00 0.00 0.00 91
20260903151620 55 306 0.0 0.0 0.00 0.00 0.00 91
20260903151116 55 306 0.0 0.0 0.00 0.00 0.00 91
20260903150625 54 306 0.0 0.0 0.00 0.00 0.00 91
20260903150131 54 306 0.0 0.0 0.00 0.00 0.00 90
20260903145612 53 306 0.0 0.0 0.00 0.00 0.00 89
20260903145055 53 306 0.0 0.0 0.00 0.00 0.00 89
20260903143933 53 306 0.0 0.0 0.00 0.00 0.00 88
20260903143425 53 306 0.0 0.0 0.00 0.00 0.00 88
20260903142909 53 306 0.0 0.0 0.00 0.00 0.00 88
20260903142416 53 306 0.0 0.0 0.00 0.00 0.00 88
20260903141312 53 306 0.0 0.0 0.00 0.00 0.00 88
20260903140820 53 306 0.0 0.0 0.00 0.00 0.00 88
20260903140309 53 306 0.0 0.0 0.00 0.00 0.00 88
20260903135756 53 306 0.0 0.0 0.00 0.00 0.00 88
20260903134639 53 306 0.0 0.0 0.00 0.00 0.00 87
20260903134126 53 306 0.0 0.0 0.00 0.00 0.00 87
20260903133624 53 306 0.0 0.0 0.00 0.00 0.00 87
20260903133116 53 306 0.0 0.0 0.00 0.00 0.00 87
20260903132609 53 306 0.0 0.0 0.00 0.00 0.00 87
20260903131451 53 306 0.0 0.0 0.00 0.00 0.00 86
20260903130943 53 306 0.0 0.0 0.00 0.00 0.00 86
20260903130450 53 306 0.0 0.0 0.00 0.00 0.00 86
20260903125931 53 306 0.0 0.0 0.00 0.00 0.00 86
20260903125434 53 306 0.0 0.0 0.00 0.00 0.00 86
20260903124925 53 306 0.0 0.0 0.00 0.00 0.00 86
20260903124408 53 306 0.0 0.0 0.00 0.00 0.00 85
20260903123904 53 306 0.0 0.0 0.00 0.00 0.00 85
20260903123359 54 306 0.0 0.0 0.00 0.00 0.00 85
20260903122858 54 306 0.0 0.0 0.00 0.00 0.00 85
20260903122343 54 306 0.0 0.0 0.00 0.00 0.00 85
20260903121841 54 306 0.0 0.0 0.00 0.00 0.00 85
20260903121332 54 306 0.0 0.0 0.00 0.00 0.00 85
20260903120826 54 306 0.0 0.0 0.00 0.00 0.00 85
20260903115649 54 306 0.0 0.0 0.00 0.00 0.00 85
20260903115146 54 306 0.0 0.0 0.00 0.00 0.00 84
20260903114626 54 306 0.0 0.0 0.00 0.00 0.00 84
20260903114108 55 306 0.0 0.0 0.00 0.00 0.00 84
20260903111736 55 306 0.0 0.0 0.00 0.00 0.00 84
20260903111235 55 306 0.0 0.0 0.00 0.00 0.00 84
20260903110718 55 306 0.0 0.0 0.00 0.00 0.00 84
20260903110203 55 306 0.0 0.0 0.00 0.00 0.00 84
20260903105652 55 306 0.0 0.0 0.00 0.00 0.00 84
20260903105201 55 306 0.0 0.0 0.00 0.00 0.00 84
20260903104035 55 306 0.0 0.0 0.00 0.00 0.00 85
20260903103527 55 306 0.0 0.0 0.00 0.00 0.00 84
20260903102415 56 306 0.0 0.0 0.00 0.00 0.00 83
20260903101922 56 306 0.0 0.0 0.00 0.00 0.00 83
20260903101422 56 306 0.0 0.0 0.00 0.00 0.00 83
20260903100920 56 306 0.0 0.0 0.00 0.00 0.00 83
20260903100422 56 306 0.0 0.0 0.00 0.00 0.00 83
20260903095930 56 306 0.0 1.0 0.00 0.00 0.00 82
20260903095424 56 306 0.0 0.0 0.00 0.00 0.00 81
20260903094253 56 306 0.0 0.0 0.00 0.00 0.00 81
20260903093142 57 306 0.0 0.0 0.00 0.00 0.00 81
20260903092648 57 306 0.0 0.0 0.00 0.00 0.00 81
20260903092136 57 306 0.0 0.0 0.00 0.00 0.00 81
20260903091641 57 306 0.0 0.0 0.00 0.00 0.00 81
20260903090530 57 306 0.0 0.0 0.00 0.00 0.00 81
20260903090023 57 306 0.0 0.0 0.00 0.00 0.00 81
20260903085514 57 306 0.0 0.0 0.00 0.00 0.00 81
20260903085011 57 306 0.0 0.0 0.00 0.00 0.00 82
20260903084513 57 306 0.0 0.0 0.00 0.00 0.00 82
20260903084004 58 306 0.0 0.0 0.00 0.00 0.00 82
20260903082817 58 306 0.0 0.0 0.00 0.00 0.00 81
20260903082312 58 306 0.0 0.0 0.00 0.00 0.00 81
20260903080525 58 306 0.0 0.0 0.00 0.00 0.00 79
20260903080006 58 306 0.0 0.0 0.00 0.00 0.00 79
20260903074821 59 306 0.0 0.0 0.00 0.00 0.00 78
20260903074315 59 306 0.0 0.0 0.00 0.00 0.00 78
20260903073819 59 306 0.0 0.0 0.00 0.00 0.00 77
20260903073309 59 306 0.0 0.0 0.00 0.00 0.00 78
20260903072805 59 306 0.0 0.0 0.00 0.00 0.00 78
20260903072306 59 306 0.0 0.0 0.00 0.00 0.00 78
20260903071745 60 306 0.0 0.0 0.00 0.00 0.00 77
20260903071247 60 306 0.0 0.0 0.00 0.00 0.00 77
20260903070728 60 306 0.0 0.0 0.00 0.00 0.00 77
20260903070233 60 306 0.0 0.0 0.00 0.00 0.00 77
20260903065736 60 306 0.0 0.0 0.00 0.00 0.00 77
20260903064556 60 306 0.0 0.0 0.00 0.00 0.00 77
20260903064053 60 306 0.0 0.0 0.00 0.00 0.00 77
20260903063556 60 306 0.0 0.0 0.00 0.00 0.00 77
20260903063050 60 306 0.0 0.0 0.00 0.00 0.00 76
20260903062540 60 306 0.0 0.0 0.00 0.00 0.00 76
20260903062030 61 306 0.0 2.0 0.00 0.00 0.00 76
20260903061510 61 306 0.0 0.0 0.00 0.00 0.00 74
20260903060956 61 306 0.0 0.0 0.00 0.00 0.00 75
20260903060455 61 306 0.0 0.0 0.00 0.00 0.00 74
20260903055947 61 306 0.0 0.0 0.00 0.00 0.00 74
20260903055427 62 306 0.0 0.0 0.00 0.00 0.00 74
20260903054910 62 306 0.0 0.0 0.00 0.00 0.00 74
20260903054358 62 306 0.0 0.0 0.00 0.00 0.00 74